Location: Schommer Observatory
(40.5200°N, 74.4500°W)
Time: 09:26:07
(UTC-04:00)

ISS - Pass Details

Date: 23 May 2018
Orbit: 402 x 407 km, 51.6° (Epoch: 27 May)

Event Time Altitude Azimuth Distance (km) Brightness Sun altitude
Rises 20:40:53 0° 227° (SW) 2,308 0.2 -5.1°
Reaches altitude 10° 20:42:57 10° 225° (SW) 1,452 -0.9 -5.4°
Maximum altitude 20:46:12 70° 141° (SE) 431 -3.9 -5.9°
Drops below altitude 10° 20:49:27 10° 57° (ENE) 1,458 -1.2 -6.4°
Sets 20:51:32 0° 55° (NE) 2,320 -0.2 -6.7°
